Tracking 18876 objects as of 16-Dec-2017
HD Live streaming from Space Station
objects crossing your sky now

COSMOS 2521

Track COSMOS 2521 now!
10-day predictions
COSMOS 2521 is classified as:


NORAD ID: 42919
Int'l Code: 2017-037D
Perigee: 656.4 km
Apogee: 674.9 km
Inclination: 97.9 °
Period: 97.9 minutes
Semi major axis: 7036 km
RCS: Unknown
Launch date: June 23, 2017
Source: Commonwealth of Independent States (former USSR) (CIS)
Launch site: PLESETSK MISSILE AND SPACE COMPLEX (PKMTR)
Uplink (MHz):
Downlink (MHz):
Beacon (MHz):
Mode:
Call sign:
Status:

aabbcc
Your satellite tracking list
Your tracking list is empty




NASA's NSSDC Master Catalog

Two Line Element Set (TLE):
1 42919U 17037D   17349.88431950 -.00000380 +00000-0 -54255-4 0  9993
2 42919 097.8987 051.3128 0013155 051.5981 308.6392 14.70796967016823
Source of the keplerian elements: AFSPC